星链-1567 (STARLINK-1567 )

导读 | 豆包AI

STARLINK-1567是美国星链计划中的一颗卫星,于2020年8月7日发射入轨,归属SpaceX公司运营,属于星链低轨互联网卫星星座组网成员,主要为全球提供高速卫星互联网接入服务,承载着拓展星链网络覆盖范围、提升全球宽带通信服务能力的任务,是星链大规模组网部署进程中的重要卫星之一。

基本信息
目录编号:
46038
目录名称:
STARLINK-1567
国际标识:
2020-055M
轨道中心:
EARTH
卫星名称:
星链-1567
卫星全名:
星链-1567 (STARLINK-1567 )
卫星状态:
在轨 (已飞行2045 天)
发射日期:
2020-08-07 UTC
国别 :
美国 (US)
星等 :
--
轨道信息
数据来源 国际轨道数据
星历时间: 2026-03-14T08:00:02+0800
8小时前
查看轨道信息
半长轴: 6866.263km
偏心率: 0.0001359
轨道倾角: 53.087°
近地点辐角 84.623°
升交点赤经 106.576°
平近点角 345.310°
近地点: 487.192km
远地点: 489.06km
周期: 94.371分钟
每日圈数: 15.258863
详细信息
固有亮度:
5
最大亮度:
2.5
卫星平台:
Starlink V1.0
覆盖范围:
全球
运营商:
太空探索技术公司
运营商所在国:
美国
制造商(研发单位):
太空探索技术公司
制造商所在国:
美国
使用方式:
暂无
卫星简介
星链(Starlink)计划是由太空探索技术公司(SpaceX)提出的一个巨型低轨卫星互联网星座项目,计划在2019年至2024年间在太空搭建由约1.2万颗卫星组成的“星链”网络,其中1584颗将部署在地球上空550千米处的近地轨道,并从2020年开始工作。该卫星仍在工作。
2D轨道图
3D轨道图
轨道高度分析图
轨道倾角分析图
轨道综合分析图
查看轨道综合分析图